Home > Weather > Shiprock > Past weeks

Flag for USA Past Weather in Shiprock, New Mexico, USA — Yesterday and Last 2 Weeks

Now
81 °F

Sunny.


Feels Like: 80 °F
Forecast: 65 / 99 °F
Wind: 5 mph from South

Location: Four Corners Regional Airport

Current Time: Jul 27, 2016 at 11:20:29 AM

Latest Report: Jul 27, 2016 at 10:53 AM


Visibility: 10 mi

Pressure: 30.02 "Hg (25.33 "Hg at 1492m altitude)

Humidity: 34%

Dew Point: 50 °F

Location of ShiprockLocation

Past Weather in Shiprock — Graph

°F

Shiprock Temperature Yesterday

Maximum temperature yesterday: 92 °F (at 4:53 PM)
Minimum temperature yesterday: 68 °F (at 5:53 AM)
Average temperature yesterday: 79 °F

High & Low Weather Summary for the Past Weeks

 TemperatureHumidityPressure
High97 °F (Jul 15, 4:53 PM)84% (Jul 20, 4:53 AM)30.20 "Hg (Jul 20, 4:53 AM)
Low52 °F (Jul 13, 5:53 AM)5% (Jul 12, 4:53 PM)29.78 "Hg (Jul 16, 7:53 PM)
Average78 °F30%29.97 "Hg
* Reported Jul 12 9:53 AM — Jul 27 9:53 AM, Shiprock, Weather by CustomWeather, © 2016

Note: Actual official high and low records may vary slightly from our data, if they occured in-between our weather recording intervals... More about our weather records

Advertising

Shiprock Weather History for the Previous 24 Hours

Scroll right to see more
 ConditionsComfort  
Time TempWeatherWind HumidityBarometerVisibility
9:53 AM
Wed, Jul 27
76 °FSunny.6 mph40%30.04 "Hg10 mi
8:53 AM73 °FSunny.12 mph40%30.04 "Hg10 mi
7:53 AM68 °FSunny.9 mph47%30.05 "Hg10 mi
6:53 AM62 °FClear.6 mph58%30.04 "Hg10 mi
5:53 AM61 °FClear.7 mph60%30.02 "Hg10 mi
4:53 AM62 °FClear.7 mph60%30.00 "Hg10 mi
3:53 AM65 °FClear.6 mph56%29.98 "Hg10 mi
2:53 AM64 °FClear.8 mph54%29.99 "Hg10 mi
1:53 AM69 °FClear.No wind47%29.99 "Hg10 mi
12:53 AM68 °FClear.No wind49%30.00 "Hg10 mi
11:53 PM
Tue, Jul 26
72 °FClear.6 mph41%29.98 "Hg10 mi
10:53 PM76 °FClear.7 mph42%29.98 "Hg10 mi
9:53 PM78 °FClear.13 mph40%29.96 "Hg10 mi
8:53 PM82 °FSunny.18 mph28%29.94 "Hg10 mi
7:53 PM83 °FSunny.15 mph26%29.94 "Hg10 mi
6:53 PM84 °FThundershowers. Scattered clouds.17 mph26%29.90 "Hg10 mi
5:53 PM90 °FScattered clouds.N/A17%29.89 "Hg10 mi
4:53 PM92 °FSunny.6 mph18%29.87 "Hg10 mi
3:53 PM91 °FSunny.6 mph19%29.89 "Hg10 mi
2:53 PM90 °FSunny.13 mph23%29.90 "Hg10 mi
1:53 PM86 °FSunny.8 mph24%29.95 "Hg10 mi
12:53 PM85 °FSunny.5 mph28%29.98 "Hg10 mi
11:53 AM83 °FSunny.5 mph32%30.01 "Hg10 mi
Weather by CustomWeather, © 2016

See weather overviewHow to use our weather pages